Track STARLINK-2605 now! 10-day predictions STARLINK-2605 is classified as:
1 48392U 21038AR 22181.53442057 .00000378 00000-0 44288-4 0 9992 2 48392 53.0547 273.7376 0001482 64.3245 295.7897 15.06393501 65322